Location: Schommer Observatory
(40.5200°N, 74.4500°W)
Time: 14:51:49
(UTC-04:00)

Tiangong 2 - Pass Details

Date: 10 October 2017
Orbit: 388 x 392 km, 42.8° (Epoch: 17 October)

Event Time Altitude Azimuth Distance (km) Brightness Sun altitude
Exits shadow 05:33:39 47° 204° (SSW) 529 1.5 -17.9°
Maximum altitude 05:34:14 57° 158° (SSE) 464 1.5 -17.8°
Drops below altitude 10° 05:37:24 10° 78° (ENE) 1,423 5.2 -17.2°
Sets 05:39:30 0° 75° (ENE) 2,281 6.7 -16.8°
